Tracking 34794 objects as of 19-Jul-2026
HD Live streaming from Space Station
objects crossing your sky now

STARLINK-32047

Track STARLINK-32047 now!
10-day predictions
STARLINK-32047 is classified as:


NORAD ID: 61516
Int'l Code: 2024-183H
Perigee: 477.1 km
Apogee: 478.6 km
Inclination: 53.2 °
Period: 94.0 minutes
Semi major axis: 6848 km
RCS: Unknown
Launch date: October 15, 2024
Source: United States (US)
Launch site: AIR FORCE EASTERN TEST RANGE (AFETR)
Your satellite tracking list
Your tracking list is empty




NASA's NSSDC Master Catalog

Two Line Element Set (TLE):
1 61516U 24183H   26199.50469640 -.00000063  00000-0  97275-5 0  9993
2 61516  53.1584 253.9108 0001112  86.2493 273.8635 15.31701127 99697
Source of the keplerian elements: AFSPC